Vorticity
nan nan nan nan nan nan nan nan nan nan nan nan nan nan nan nan nan nan nan nan nan nan nan nan nan nan nan nan nan nan nan nan nan nan nan nan nan nan nan nan nan nan nan nan nan nan nan nan nan nan nan nan nan nan nan nan nan nan nan nan nan nan nan nan nan nan nan nan nan nan nan nan nan nan nan nan nan nan nan nan nan nan nan nan nan nan nan nan nan nan nan nan nan nan nan nan nan nan nan nan nan nan nan
nan 6 11 18 21 23 14 1 -3 -7 -6 -0 8 18 22 19 14 9 7 5 6 7 8 7 6 6 7 7 4 1 2 2 3 5 7 7 8 8 10 12 12 10 7 5 3 3 -3 -5 1 6 6 4 5 5 7 7 5 5 4 4 6 8 19 24 13 6 4 4 4 4 4 4 5 5 5 5 5 4 4 4 4 5 5 4 4 3 3 4 5 5 6 7 7 7 7 6 6 6 6 6 5 5 nan
nan 6 8 14 20 25 17 4 -2 -6 -6 -0 7 14 20 21 16 9 7 5 6 7 7 7 5 5 8 9 6 3 3 3 2 4 5 6 7 7 9 11 10 9 7 5 4 2 -3 -4 0 5 6 5 5 7 8 7 5 5 4 5 8 11 18 19 11 6 4 4 5 4 5 5 5 5 5 5 5 4 4 3 4 4 4 4 4 3 3 4 4 5 6 6 7 7 7 7 6 6 6 6 6 6 nan
nan 7 7 12 18 26 20 9 1 -6 -8 -1 6 12 19 22 17 10 6 5 7 7 7 7 5 5 8 8 7 5 4 4 3 3 4 5 5 4 5 8 8 8 7 5 2 -4 -6 -1 3 5 6 6 6 6 6 5 5 5 4 6 9 14 19 17 9 6 5 5 5 5 5 5 5 5 5 5 5 4 4 4 3 3 4 4 4 3 4 4 5 5 5 6 6 7 7 7 7 6 6 6 6 6 nan
nan 7 7 10 16 25 23 14 5 -5 -10 -5 3 11 19 21 18 12 6 6 7 7 7 7 6 5 7 7 7 7 6 5 4 4 4 4 3 3 3 4 5 5 5 4 1 -5 -4 2 4 5 6 6 6 6 6 5 5 4 5 8 13 19 19 12 7 5 5 5 5 5 6 5 5 5 5 5 4 4 4 4 3 3 3 3 3 3 4 5 5 5 5 5 6 6 7 7 7 7 6 5 6 6 nan
nan 8 7 8 13 23 26 19 9 -2 -10 -8 -0 9 17 20 18 15 8 6 7 7 8 8 6 6 6 6 7 7 6 6 6 5 4 3 3 4 3 3 3 3 4 3 1 -2 -3 -0 3 6 7 6 6 7 6 5 5 5 6 10 16 19 17 10 7 5 5 6 6 5 5 5 5 5 5 5 5 4 4 4 4 4 4 3 3 3 4 5 5 5 5 5 5 5 6 6 7 7 6 5 5 5 nan
nan 8 7 6 10 19 27 25 15 2 -9 -11 -4 6 15 18 18 17 10 8 7 8 9 9 8 7 6 5 6 7 6 6 6 6 5 4 4 7 4 3 3 3 3 2 1 -2 -3 0 4 6 6 7 8 6 5 6 6 6 7 13 20 19 13 8 6 5 6 7 6 6 5 4 4 5 5 5 5 5 4 4 4 4 4 4 4 4 4 4 5 5 5 5 5 4 4 5 5 5 5 4 4 4 nan
nan 9 7 5 7 15 25 27 20 9 -3 -10 -6 3 13 17 18 18 11 9 9 9 10 9 9 9 6 6 6 6 7 6 5 6 6 5 5 6 5 6 4 3 3 2 2 1 -1 -1 2 4 4 7 9 7 6 6 6 5 6 13 21 18 12 8 6 5 7 7 7 6 5 4 4 4 5 5 5 5 3 3 4 4 5 5 4 4 4 4 4 5 5 5 5 4 4 4 4 3 4 3 3 3 nan
nan 8 7 5 5 10 22 28 23 14 2 -8 -8 -1 9 16 19 19 12 9 9 9 9 9 9 9 8 7 7 7 8 7 5 6 6 6 5 4 5 8 5 4 3 3 3 2 -2 -3 1 4 5 8 9 7 4 4 6 5 6 12 18 19 13 7 6 5 7 7 7 7 5 4 4 4 4 5 5 5 3 2 3 4 5 6 4 4 3 3 4 4 5 5 5 5 4 3 3 3 3 4 3 3 nan
nan 8 7 5 4 6 19 27 24 18 6 -5 -8 -6 4 13 19 20 12 7 7 7 8 7 8 8 9 8 8 7 8 8 6 6 8 7 5 1 5 10 7 5 4 3 3 3 -3 -4 3 5 7 9 7 7 3 3 7 6 7 14 20 18 10 6 5 5 6 7 7 7 5 4 4 4 4 5 5 4 4 2 2 5 8 7 5 4 3 2 3 4 4 5 5 5 5 5 5 4 4 4 3 3 nan
nan 7 7 6 5 4 15 25 25 22 10 -3 -8 -8 -2 8 15 20 15 6 4 5 6 5 5 7 9 8 7 7 7 7 6 7 8 8 6 3 5 8 8 7 6 4 4 3 -4 -3 4 4 7 10 7 5 3 5 7 6 9 17 20 15 8 6 5 5 6 6 6 6 5 4 4 4 5 5 5 4 4 3 4 7 9 8 6 4 3 3 3 3 3 4 5 5 5 5 5 5 5 5 4 4 nan
nan 6 7 7 6 4 10 21 26 27 15 0 -6 -8 -5 1 9 18 19 11 6 5 4 4 4 5 7 8 7 7 6 6 7 7 7 7 6 4 4 6 8 8 7 6 4 -1 -6 -3 3 4 7 9 6 3 3 5 7 6 13 20 16 12 8 6 5 6 6 6 5 5 5 4 4 4 5 6 6 5 4 4 6 8 10 9 7 5 3 3 2 3 3 4 4 4 5 5 5 5 5 6 5 5 nan
nan 8 9 9 8 4 6 15 25 31 21 6 -2 -6 -6 -3 3 12 22 18 11 7 5 3 3 3 6 9 9 7 6 6 7 7 7 7 6 5 5 6 7 8 8 6 -0 -8 -8 2 7 6 5 6 5 4 4 6 7 8 17 21 12 8 6 5 6 6 5 5 4 4 4 4 4 4 5 6 6 6 5 5 7 9 10 10 8 5 4 3 2 2 3 5 5 5 5 5 5 5 5 5 5 5 nan
nan 12 12 10 9 6 5 11 22 30 26 14 4 -1 -4 -3 -0 6 20 23 18 12 7 5 3 3 6 10 10 9 7 6 6 6 7 7 7 6 6 7 7 7 5 -2 -8 -9 0 9 9 6 3 5 7 6 4 4 8 13 18 18 11 8 6 6 6 5 5 4 4 3 3 4 4 5 5 6 6 7 6 6 7 8 9 9 8 6 5 3 3 4 5 7 6 6 5 5 4 4 4 5 5 4 nan
nan 14 12 10 8 8 6 9 19 28 27 18 9 3 0 -1 -1 1 13 25 26 20 12 7 4 4 8 11 11 11 9 7 5 4 6 8 8 8 9 8 8 5 -4 -12 -7 0 9 11 8 5 5 5 7 7 5 5 9 17 18 13 10 7 6 6 7 6 4 4 3 3 3 4 4 4 5 6 6 7 7 8 7 7 8 8 7 7 6 6 9 11 11 8 8 7 6 5 4 4 4 4 4 4 nan
nan 12 9 9 8 8 6 9 17 24 26 19 11 6 4 1 -2 -4 3 22 33 31 19 10 5 5 9 13 12 11 11 11 7 4 5 7 9 9 11 10 5 -2 -13 -9 1 7 10 9 6 5 6 6 6 6 6 7 12 19 18 11 9 7 5 7 9 7 5 4 3 3 3 4 4 4 4 5 6 7 7 8 8 7 6 6 6 6 7 12 17 21 17 10 8 7 6 5 4 3 3 4 4 4 nan
nan 10 8 9 9 8 7 9 15 22 25 20 11 7 6 3 -2 -6 -7 12 31 37 28 13 5 4 9 13 11 5 9 16 14 11 7 7 8 9 11 8 -0 -10 -12 -0 6 9 9 6 5 6 8 7 6 6 6 9 15 19 16 10 8 6 5 8 10 9 7 4 3 3 3 4 5 4 4 4 5 6 7 7 7 6 6 5 5 5 7 14 21 25 20 11 8 6 5 4 4 3 4 4 5 5 nan
nan 7 8 9 9 8 7 9 14 21 24 20 11 7 6 4 -0 -6 -12 0 21 34 33 19 7 4 8 10 6 -2 3 14 15 17 15 13 10 8 8 2 -4 -9 -4 5 9 9 7 5 5 6 8 7 6 6 7 11 18 19 14 9 7 6 6 9 11 11 8 4 3 4 5 5 6 5 5 5 5 5 6 7 6 5 5 5 5 4 6 12 17 20 16 10 8 6 5 4 3 4 4 5 5 5 nan
nan 9 10 10 10 9 9 11 17 23 26 20 10 7 6 4 0 -5 -10 -5 11 27 35 25 10 3 7 6 2 -3 1 9 9 12 16 16 12 7 1 -3 -3 -3 3 9 11 8 5 4 5 5 7 8 7 7 8 13 18 18 13 9 6 5 7 11 12 12 7 4 4 4 6 7 7 7 6 6 5 5 5 6 5 4 4 4 5 5 5 7 10 11 10 8 7 6 4 3 3 4 5 5 5 5 nan
nan 18 18 18 17 15 16 19 25 30 31 21 12 10 9 6 3 -2 -6 -4 6 22 34 29 16 6 4 3 1 -2 1 6 6 8 11 12 10 5 -1 -0 2 3 7 11 10 6 3 4 4 5 7 8 8 7 8 14 20 18 12 8 5 5 8 12 13 13 7 5 4 5 6 7 8 8 8 7 6 6 6 6 5 4 3 4 5 6 6 5 5 5 5 6 6 6 4 4 4 5 5 5 5 5 nan
nan 21 24 25 25 25 26 30 35 37 36 21 11 12 14 13 9 5 3 2 7 19 34 36 24 9 3 7 6 4 -2 1 4 6 10 11 9 5 2 3 5 5 9 11 7 4 4 4 4 5 7 8 8 8 9 15 20 17 12 8 5 5 8 12 13 13 8 6 6 6 7 7 8 8 8 7 7 7 6 6 5 4 3 3 4 8 8 6 4 3 3 4 5 5 5 4 5 6 6 6 5 5 nan
nan 15 18 22 24 25 26 30 34 35 35 22 9 9 13 14 13 12 9 5 6 12 29 41 32 11 1 12 13 12 1 -3 3 4 8 11 11 8 4 4 5 6 8 8 6 6 5 4 4 6 7 7 8 9 15 18 16 14 12 8 7 7 8 9 11 11 9 8 7 7 7 7 7 7 8 7 7 7 6 6 5 4 4 4 5 10 12 9 6 4 4 4 4 5 5 5 6 7 7 6 5 5 nan
nan 12 14 16 16 16 15 18 22 23 25 21 9 7 9 10 11 10 9 6 5 6 18 32 30 15 1 9 15 18 9 1 4 4 5 8 11 12 7 4 6 7 7 7 6 7 6 5 4 6 6 7 7 9 16 20 15 13 11 9 8 8 9 8 7 8 8 8 7 7 7 6 6 6 7 7 7 7 6 6 5 5 5 5 7 10 13 12 9 7 5 5 5 5 6 7 7 7 7 6 5 5 nan
nan 13 14 13 11 9 9 10 11 12 14 14 9 8 9 9 9 8 7 6 6 7 15 22 22 17 7 6 12 15 14 8 7 4 3 4 9 13 12 7 5 6 8 8 5 5 6 6 5 6 7 6 7 9 15 20 17 13 11 9 9 9 10 8 6 5 6 6 6 7 7 6 5 5 5 6 6 6 6 5 4 4 5 6 8 9 11 11 10 9 8 8 7 7 7 8 8 8 7 6 5 5 nan
nan 12 12 10 9 8 7 8 8 8 8 9 8 8 9 9 9 8 8 7 8 8 14 18 17 14 9 6 8 10 13 12 11 8 4 3 7 10 12 9 5 6 9 9 5 4 7 7 5 6 7 6 6 9 14 18 18 14 10 9 9 10 11 9 6 5 4 4 5 5 5 4 4 4 4 4 5 5 6 4 3 3 3 6 8 8 7 8 8 8 8 8 8 8 9 9 9 9 7 6 5 5 nan
nan 9 9 8 7 8 8 8 8 8 7 8 7 8 9 9 8 8 8 7 7 7 10 13 15 14 7 4 6 7 9 11 14 13 8 5 6 7 9 8 5 7 9 7 5 5 9 8 5 5 6 6 6 8 13 16 16 13 10 9 10 11 11 10 8 6 4 4 4 4 3 3 3 3 3 4 4 5 5 4 4 3 2 5 7 6 6 5 5 6 6 7 8 8 8 9 8 8 7 6 5 5 nan
nan 8 7 7 7 8 8 8 8 8 8 8 8 9 9 8 7 7 6 5 6 7 11 15 18 17 11 6 6 5 4 7 11 13 12 11 9 7 7 7 6 8 7 4 4 6 9 9 6 5 6 6 6 7 14 18 14 12 10 9 10 11 12 11 10 8 7 5 5 4 4 3 2 3 3 4 4 5 5 5 5 4 2 3 4 4 5 5 5 4 4 5 6 7 7 7 7 7 6 5 5 4 nan
nan 9 8 8 8 9 9 8 8 8 8 9 9 9 8 8 8 8 6 4 5 7 14 20 22 19 13 9 9 7 5 5 5 6 8 13 15 11 8 8 7 8 5 3 4 6 9 10 8 6 5 5 6 6 12 17 16 13 10 8 9 10 12 13 12 10 9 8 7 5 4 3 3 4 4 4 5 6 6 6 6 5 4 3 2 2 3 5 5 4 3 3 4 5 6 6 6 6 5 5 4 4 nan
nan 7 8 8 8 9 10 10 9 7 8 8 7 7 7 8 9 10 9 6 4 5 12 18 20 19 9 5 8 10 9 9 8 5 -3 3 15 16 10 8 6 6 6 5 4 6 8 10 8 6 5 6 5 6 9 16 18 14 9 7 8 9 11 13 13 12 10 9 8 7 5 5 4 4 5 5 6 7 7 6 6 6 6 4 3 2 2 4 5 5 4 3 3 4 5 5 5 5 4 4 4 5 nan
nan 6 7 7 7 8 10 10 10 8 8 7 6 4 4 6 9 10 9 6 4 4 7 14 19 21 7 -2 4 8 10 13 13 14 0 -4 10 14 10 7 8 8 7 4 2 5 9 10 8 4 5 6 5 5 7 13 18 17 10 7 7 7 9 12 13 13 11 9 8 7 6 6 6 6 5 6 6 7 7 7 7 7 7 6 5 4 3 3 4 5 6 5 4 4 4 4 4 5 4 4 4 5 nan
nan 6 6 6 7 8 9 10 9 8 10 9 6 4 2 1 4 9 8 5 4 5 8 15 19 23 12 0 3 5 9 13 17 19 8 1 9 12 10 9 8 7 5 3 2 5 10 11 7 3 4 6 6 6 6 10 17 19 13 7 6 6 7 11 14 14 12 10 9 8 8 7 7 7 6 6 7 7 8 8 7 7 7 7 6 6 5 4 4 5 6 6 5 5 4 4 4 5 5 5 5 5 nan
nan 7 6 6 7 7 8 8 7 7 10 12 11 9 6 -0 -2 4 8 5 5 5 7 14 19 21 14 6 5 6 7 12 17 20 11 5 12 13 11 9 6 5 4 4 6 6 8 10 9 6 6 6 5 5 6 9 14 19 19 12 6 4 6 9 13 15 14 12 11 11 9 8 8 8 7 6 6 7 7 8 7 7 7 7 7 7 6 6 6 6 6 6 6 5 5 5 5 5 6 6 6 6 nan
nan 8 6 6 6 7 8 7 6 7 10 13 14 14 11 3 -3 -2 2 4 4 3 4 10 15 18 11 5 7 8 8 9 14 21 14 6 11 12 12 10 6 4 5 6 7 6 7 10 10 7 7 7 4 4 6 8 11 14 18 18 11 6 6 10 13 13 12 14 14 14 12 10 9 8 7 7 6 6 7 8 7 7 7 7 7 7 7 7 7 6 6 6 6 6 6 5 5 6 6 6 6 6 nan
nan 8 6 6 7 8 8 6 6 8 11 13 15 17 16 9 2 -3 -4 1 3 3 6 10 13 17 8 0 6 9 9 8 9 15 15 10 11 11 12 9 6 5 6 7 8 7 7 9 9 8 7 7 6 4 4 7 9 11 14 17 15 11 9 11 13 11 10 14 15 16 14 11 9 8 8 7 7 6 6 7 7 7 7 7 7 6 6 6 6 6 6 7 7 7 6 6 6 5 5 6 6 6 nan
nan 7 6 6 7 8 7 5 7 8 12 17 19 21 18 13 7 2 -1 2 6 8 11 13 14 18 10 -2 1 7 10 8 5 9 12 12 11 10 8 5 5 7 9 9 8 6 7 8 8 8 8 7 6 4 4 6 8 10 13 15 14 13 14 16 16 11 8 11 14 16 15 12 10 9 8 8 8 7 6 6 6 6 6 6 6 6 5 5 5 5 5 6 7 7 7 6 5 5 5 5 5 6 nan
nan 6 6 7 7 8 6 4 5 7 13 22 26 27 21 13 10 9 6 8 11 14 15 14 14 17 12 1 1 6 9 6 3 6 11 13 10 8 7 7 5 5 8 9 8 7 7 7 8 9 9 7 5 4 4 6 7 9 12 13 12 11 16 21 19 14 10 9 12 14 14 12 11 9 9 9 9 8 7 6 5 5 6 6 5 5 5 5 5 5 5 6 6 7 6 6 5 5 5 5 5 6 nan
nan 7 7 7 7 8 7 5 4 4 11 23 27 29 20 14 14 16 17 15 15 14 16 16 17 15 9 2 4 8 9 4 2 4 9 12 10 9 8 7 5 5 7 7 7 9 9 7 7 8 8 6 6 6 5 6 8 8 9 10 10 10 12 17 21 19 13 8 10 11 12 12 11 10 10 9 9 9 8 6 6 5 5 5 5 4 5 5 5 6 6 6 6 6 6 6 5 5 5 5 6 6 nan
nan 8 8 7 7 7 8 6 3 3 8 15 18 20 16 12 13 16 24 25 22 16 14 17 19 14 7 4 6 11 12 5 2 3 7 10 9 9 8 7 7 7 7 7 8 10 9 7 7 7 8 7 7 6 5 6 9 8 8 9 8 8 10 13 15 17 16 12 12 11 10 10 11 11 10 9 9 9 9 8 7 6 6 5 5 4 4 5 6 6 6 6 6 6 6 6 6 5 6 5 6 6 nan
nan 9 9 8 8 8 9 6 4 3 7 7 9 10 11 7 7 9 17 24 25 20 13 13 15 9 7 8 9 12 12 7 3 2 5 8 8 8 8 7 8 8 8 8 8 10 9 7 7 8 8 7 7 6 5 7 9 8 7 8 7 7 9 11 12 11 12 15 17 16 11 7 9 11 11 10 9 9 9 9 8 8 7 6 6 5 5 5 6 7 7 7 7 7 7 6 6 6 5 5 5 5 nan
nan 9 9 9 9 9 9 7 6 5 6 5 7 7 8 6 5 5 10 17 22 21 13 10 10 8 6 8 9 11 11 8 5 3 3 6 7 7 8 8 8 8 8 8 8 9 10 9 9 7 7 7 6 6 7 8 9 8 7 7 7 7 7 9 10 9 9 12 16 21 17 9 8 9 10 10 9 9 10 9 9 8 8 8 7 7 6 6 7 7 7 7 7 7 6 6 6 5 5 5 4 4 nan
nan 8 9 9 9 9 8 9 8 8 6 6 7 7 7 7 5 5 9 14 19 21 13 8 9 9 5 4 8 11 11 10 9 6 2 3 6 5 5 6 7 8 9 8 7 9 11 11 10 7 6 6 6 7 8 9 8 7 7 8 8 8 7 7 7 6 7 10 13 18 22 17 10 8 9 9 9 9 9 9 10 10 10 9 8 7 6 7 7 7 7 7 7 7 7 6 6 5 5 5 4 3 nan
nan 8 9 9 9 9 8 10 10 10 7 7 7 6 7 7 6 5 9 13 18 21 15 7 9 9 3 1 6 11 12 12 13 11 6 4 6 5 3 4 7 8 9 8 6 7 9 10 9 8 7 8 8 8 9 8 8 7 7 8 9 8 8 6 4 4 6 8 11 14 23 25 16 11 10 10 10 9 8 9 10 11 12 11 9 7 6 6 6 7 7 7 7 7 7 7 6 6 5 5 5 4 nan
nan 9 9 9 9 9 8 10 11 10 8 8 7 7 7 8 7 6 7 11 16 19 18 13 9 7 4 3 4 8 10 12 13 13 11 9 9 9 6 5 6 8 9 8 7 7 7 8 9 9 8 9 9 10 8 8 8 7 7 8 9 9 9 6 3 4 5 7 9 11 17 24 24 17 11 11 10 9 8 9 10 11 13 13 11 8 6 6 6 6 6 6 6 7 8 8 8 7 6 6 6 5 nan
nan 12 11 10 9 8 8 9 10 10 8 8 7 7 8 9 8 7 6 9 13 16 18 16 11 7 7 5 4 6 10 12 12 12 10 10 11 12 9 5 5 5 8 9 8 8 8 9 9 8 7 9 11 10 9 8 8 6 5 6 9 11 10 6 5 5 5 4 6 9 12 17 22 20 15 11 10 9 8 8 9 10 13 15 15 12 9 8 7 6 6 6 6 6 7 8 8 8 8 7 6 6 nan
nan 12 12 11 11 10 9 9 10 9 8 8 7 8 9 9 9 8 7 9 11 14 14 14 13 10 9 7 4 4 8 12 14 13 10 9 10 12 10 6 5 5 7 9 9 9 9 10 9 7 7 8 10 10 11 10 7 5 5 6 9 11 11 7 6 6 3 2 5 8 10 11 12 15 15 12 11 11 11 10 9 9 12 15 16 15 12 11 11 10 8 7 6 6 6 6 7 7 7 7 6 6 nan
nan 11 10 10 13 13 12 10 10 9 8 7 7 8 9 9 9 8 8 8 9 12 11 12 13 12 11 10 7 2 2 8 12 14 11 8 10 13 12 8 6 7 8 9 10 10 10 9 8 8 8 8 9 9 11 11 8 6 7 8 9 11 11 9 7 5 3 2 5 8 10 10 8 8 10 10 10 12 15 15 12 10 11 13 15 16 13 12 14 14 13 9 8 7 6 6 6 6 6 6 6 5 nan
nan 11 7 7 11 14 15 14 14 11 8 7 8 8 8 9 9 9 8 8 8 9 10 12 13 11 11 13 14 10 2 0 3 6 9 9 11 13 12 8 5 6 7 9 10 11 10 8 8 9 9 8 9 9 10 10 8 8 8 9 9 11 11 10 8 6 2 3 6 8 9 9 8 6 7 8 9 11 14 16 16 14 11 11 12 14 13 12 14 16 16 13 10 9 8 7 7 7 7 6 6 5 nan
nan 12 7 5 8 11 12 15 18 16 11 8 8 8 8 9 10 10 9 9 8 8 9 11 13 11 8 11 14 16 13 4 -2 -3 4 7 8 9 11 11 6 2 2 7 11 13 10 8 8 8 8 9 9 9 9 9 9 8 8 9 10 12 12 10 8 5 3 4 8 9 8 8 8 7 6 8 8 10 11 13 17 17 15 12 11 11 11 10 12 15 17 16 13 11 9 8 8 8 8 7 7 6 nan
nan 13 9 7 7 9 8 10 16 18 16 13 10 9 8 9 10 10 10 10 10 9 9 10 13 13 9 7 10 14 17 14 6 -2 0 4 4 4 11 17 12 5 2 4 10 15 12 8 8 7 8 9 9 9 9 9 9 9 9 9 10 12 13 11 8 5 4 6 8 8 7 7 7 7 6 7 8 9 9 10 12 16 18 16 13 11 10 9 10 13 15 16 15 13 11 10 9 9 9 9 8 8 nan
nan 12 11 9 7 8 7 8 13 14 15 16 13 11 10 10 11 10 8 7 8 8 8 9 12 15 12 7 7 9 15 19 16 5 1 5 4 4 8 14 14 12 8 6 7 14 15 10 10 8 5 4 5 7 6 7 8 8 9 9 9 11 13 12 9 7 8 9 7 8 7 6 5 7 6 6 7 8 9 9 10 12 15 17 15 12 12 12 11 11 13 15 15 15 13 11 10 10 10 9 9 9 nan
nan 11 12 11 8 7 6 8 13 13 12 12 13 16 14 12 11 9 7 6 5 6 6 6 9 12 15 11 8 8 13 19 20 10 5 10 9 9 8 9 10 10 11 10 7 10 16 15 11 9 5 2 3 5 4 4 6 6 7 8 9 10 10 10 10 9 10 9 8 8 8 6 5 6 6 5 6 8 8 8 9 10 11 11 12 12 12 15 16 14 12 12 13 15 15 13 12 11 10 10 10 10 nan
nan 13 13 12 10 8 6 7 10 12 13 14 12 13 14 13 13 11 9 8 7 6 5 5 6 7 10 12 9 8 9 13 15 13 11 11 9 9 9 8 7 7 9 10 8 7 10 14 12 11 8 5 6 9 9 7 7 6 7 9 9 9 8 9 9 9 10 9 9 9 9 7 6 6 7 6 5 6 7 8 8 9 9 9 9 10 11 12 14 17 15 11 10 11 14 16 14 12 10 10 10 10 nan
nan 13 16 14 11 10 8 6 7 10 14 13 11 10 9 10 14 15 14 12 9 8 7 7 7 5 4 7 8 8 7 6 8 9 12 11 7 6 7 8 8 9 7 7 6 6 5 9 10 11 10 10 11 14 16 14 11 9 9 9 9 9 8 9 9 10 9 9 8 8 8 8 9 9 9 7 6 6 7 7 6 7 9 9 9 9 11 14 16 15 14 11 10 9 12 16 16 14 12 10 10 10 nan
nan 9 15 18 14 11 9 7 8 9 12 12 11 9 6 6 10 12 14 17 17 12 8 8 8 7 5 4 5 6 8 7 6 5 10 10 7 5 5 6 9 10 10 9 7 7 7 7 9 8 7 9 11 12 14 15 13 12 12 10 8 8 8 9 9 9 9 9 8 8 8 8 9 11 10 7 7 7 8 7 7 7 8 8 8 8 10 14 18 15 13 12 10 9 11 14 15 16 14 11 10 9 nan
nan 10 13 15 15 14 9 8 11 10 10 12 10 9 6 6 8 7 8 12 17 20 18 13 9 7 8 6 5 5 6 6 7 7 8 7 5 3 4 5 6 8 11 12 11 9 10 10 8 7 5 5 7 9 11 11 11 12 12 12 9 7 7 8 8 8 8 9 9 10 9 9 9 10 8 6 7 9 10 9 8 7 8 8 8 8 10 12 13 12 13 15 14 10 9 12 13 14 15 13 11 9 nan
nan 8 10 10 13 16 14 10 10 11 11 11 10 9 8 7 6 6 5 5 8 16 24 24 15 8 7 10 10 8 5 4 5 9 10 8 5 3 2 5 6 6 9 11 11 11 11 11 6 6 6 7 8 8 11 11 10 10 11 12 10 8 6 7 7 7 8 8 9 10 10 10 10 10 8 7 7 8 9 9 8 8 8 8 8 9 9 9 9 10 11 14 16 16 12 11 11 11 13 13 11 10 nan
nan 3 6 9 11 15 17 13 9 10 11 10 10 9 8 7 6 5 4 6 7 7 15 23 21 16 9 10 12 13 9 6 5 8 10 10 8 5 2 3 5 7 9 10 10 9 12 10 5 5 8 6 9 8 11 11 10 9 10 11 10 10 7 6 6 7 8 8 8 8 9 9 9 9 9 8 8 8 8 8 8 8 9 8 8 8 10 10 8 8 9 10 13 19 18 12 10 9 10 11 10 9 nan
nan 5 4 7 9 13 16 15 11 11 10 9 11 10 8 8 8 6 4 5 7 6 11 18 20 20 16 11 8 9 9 9 9 9 9 10 10 8 5 1 1 4 10 12 11 10 10 9 7 6 5 3 5 7 10 10 9 9 10 11 11 10 8 7 6 6 7 7 7 7 8 9 9 9 10 9 7 8 8 7 8 8 9 8 8 9 11 11 9 7 7 8 10 15 18 15 11 9 8 8 8 8 nan
nan 10 6 6 8 11 13 14 13 12 9 9 11 10 8 7 8 9 7 5 5 7 14 17 16 17 22 18 10 6 7 9 9 8 7 8 10 10 9 4 2 1 4 7 9 12 12 10 10 9 4 2 4 5 6 10 10 9 9 11 12 12 11 9 8 7 7 8 7 6 6 7 9 9 9 9 8 8 8 8 8 8 7 7 8 9 11 12 11 9 9 9 9 12 13 14 13 11 9 8 7 7 nan
nan 14 9 5 7 11 12 11 12 12 10 10 11 9 7 7 8 9 9 5 4 7 13 15 16 16 20 24 20 14 10 9 9 7 4 5 9 12 11 7 6 5 2 2 4 8 11 12 12 12 7 5 6 5 4 7 8 9 8 9 11 13 13 11 11 9 9 10 9 8 6 6 7 8 8 9 8 8 9 9 8 7 6 6 7 9 10 11 11 12 11 11 12 13 13 13 13 13 11 8 6 6 nan
nan nan nan nan nan nan nan nan nan nan nan nan nan nan nan nan nan nan nan nan nan nan nan nan nan nan nan nan nan nan nan nan nan nan nan nan nan nan nan nan nan nan nan nan nan nan nan nan nan nan nan nan nan nan nan nan nan nan nan nan nan nan nan nan nan nan nan nan nan nan nan nan nan nan nan nan nan nan nan nan nan nan nan nan nan nan nan nan nan nan nan nan nan nan nan nan nan nan nan nan nan nan nan
CAPE
41 148 398 585 539 539 383 314 412 412 519 484 683 683 1279 1722 1722 1632 1653 1935 1935 1919 1813 1729 1768 1768 1694 1527 1604 1604 1682 1569 1613 1613 1603 1499 1499 1341 1289 1349 1349 1257 1059 837 675 675 469 31 nan nan nan nan nan nan nan nan nan nan nan nan nan nan nan 197 353 353 433 532 507 507 344 182 143 143 128 97 97 83 99 115 115 121 159 183 129 129 84 49 23 23 13 7 6 6 13 20 20 29 25 20 20 11 3
33 84 291 577 524 524 373 266 372 372 477 447 498 498 1016 1499 1499 1677 1629 1854 1854 1837 1778 1636 1804 1804 1700 1449 1483 1483 1659 1440 1532 1532 1616 1514 1514 1362 1305 1284 1284 1093 939 738 557 557 300 nan nan nan nan nan nan nan nan nan nan nan nan nan nan nan nan 307 335 335 387 483 430 430 305 211 187 187 172 103 103 62 75 91 91 114 132 135 105 105 67 64 42 42 18 8 6 6 10 16 16 19 16 11 11 6 6
27 53 218 449 518 518 389 298 359 359 437 443 427 427 788 1290 1290 1659 1656 1828 1828 1811 1695 1631 1761 1761 1766 1411 1410 1410 1637 1365 1449 1449 1533 1590 1590 1388 1279 1165 1165 956 795 579 397 397 222 nan nan nan nan nan nan nan nan nan nan nan nan nan nan nan nan 313 315 315 340 434 417 417 269 196 239 239 244 164 164 98 82 116 116 141 157 110 85 85 60 67 70 70 28 13 12 12 12 13 13 12 8 7 7 5 14
27 42 111 336 547 547 407 339 321 321 375 411 412 412 598 1140 1140 1672 1686 1804 1804 1786 1669 1509 1554 1554 1628 1383 1386 1386 1567 1341 1419 1419 1502 1523 1523 1421 1215 995 995 819 627 440 306 306 nan nan nan nan nan nan nan nan nan nan nan nan nan nan nan nan 67 399 294 294 345 414 366 366 233 144 223 223 299 302 302 234 174 179 179 202 184 132 54 54 40 70 91 91 50 17 15 15 16 14 14 9 10 10 10 15 23
28 32 69 222 518 518 425 362 296 296 343 358 384 384 444 932 932 1604 1732 1777 1777 1810 1635 1416 1444 1444 1488 1365 1400 1400 1485 1367 1391 1391 1476 1502 1502 1436 1204 932 932 718 545 348 163 163 nan nan nan nan nan nan nan nan nan nan nan nan nan nan nan nan 325 439 322 322 351 474 427 427 259 153 229 229 302 359 359 335 286 247 247 251 212 157 79 79 40 76 99 99 74 22 19 19 21 19 19 20 19 21 21 23 29
30 31 52 136 406 406 392 378 303 303 289 283 335 335 396 744 744 1445 1697 1758 1758 1731 1616 1453 1360 1360 1358 1345 1369 1369 1450 1439 1365 1365 1398 1476 1476 1372 1136 833 833 630 474 291 87 87 nan nan nan nan nan nan nan nan nan nan nan nan nan nan nan 15 450 512 386 386 384 478 490 490 359 222 238 238 284 338 338 368 344 297 297 259 220 181 112 112 66 80 106 106 85 36 19 19 20 31 31 48 58 41 41 36 33
33 34 46 61 285 285 370 370 309 309 247 224 261 261 327 614 614 1215 1670 1753 1753 1652 1589 1572 1378 1378 1334 1365 1342 1342 1424 1504 1431 1431 1368 1439 1439 1402 1060 771 771 609 402 233 36 36 nan nan nan nan nan nan nan nan nan nan nan nan nan nan nan 293 557 557 397 397 394 516 587 587 508 370 318 318 292 294 294 325 350 303 303 284 240 184 151 151 100 84 100 100 103 71 21 21 21 33 33 54 85 89 89 45 33
36 36 40 47 155 155 329 383 327 327 236 183 223 223 287 531 531 1025 1608 1745 1745 1627 1560 1502 1394 1394 1305 1340 1309 1309 1341 1523 1444 1444 1384 1356 1356 1322 1014 748 748 548 360 181 9 9 nan nan nan nan nan nan nan nan nan nan nan nan nan nan nan 330 603 537 407 407 404 494 596 596 606 517 462 462 348 299 299 304 357 357 357 336 264 184 188 188 153 102 102 102 102 87 48 48 36 40 40 76 122 125 125 80 39
32 34 39 41 68 68 279 416 373 373 266 189 180 180 275 454 454 936 1445 1648 1648 1561 1484 1424 1472 1472 1310 1334 1334 1334 1313 1490 1407 1407 1349 1270 1270 1191 996 764 764 530 316 136 0 0 nan nan nan nan nan nan nan nan nan nan nan nan nan nan nan 154 582 486 390 390 413 474 542 542 612 618 563 563 438 356 356 359 367 425 425 425 317 170 189 189 175 137 103 103 88 90 90 90 61 75 75 93 130 136 136 103 73
24 28 34 36 42 42 232 403 406 406 286 171 156 156 204 379 379 743 1335 1587 1587 1509 1320 1302 1342 1342 1268 1335 1357 1357 1429 1444 1322 1322 1264 1138 1138 1018 1034 723 723 455 260 81 0 0 nan nan nan nan nan 0 nan nan nan nan nan nan nan nan nan 378 559 495 399 399 452 455 460 460 498 564 509 509 422 421 421 423 406 467 467 597 439 195 210 210 215 174 136 136 101 89 79 79 93 109 109 129 136 123 123 113 93
14 18 25 28 34 34 138 337 379 379 262 196 141 141 120 250 250 489 1149 1432 1432 1379 1169 1188 1272 1272 1253 1357 1414 1414 1354 1409 1282 1282 1182 1056 1056 937 889 664 664 419 186 59 0 0 nan nan nan nan nan 4 1 1 nan nan nan nan nan nan nan 567 636 536 438 438 525 498 439 439 418 425 404 404 376 376 376 439 498 536 536 670 510 245 234 234 256 233 191 191 134 87 77 77 94 98 98 129 120 112 112 90 86
11 7 12 22 22 22 62 275 360 360 316 185 105 105 59 82 82 282 707 1246 1246 1250 1123 1050 1161 1161 1239 1331 1414 1414 1343 1321 1197 1197 1152 1023 1023 823 744 598 598 351 154 23 nan nan nan nan nan nan nan 1 4 4 nan nan nan nan nan 123 123 549 683 615 510 510 573 546 450 450 369 324 303 303 304 332 332 413 571 584 584 724 579 347 261 261 281 279 236 236 176 118 89 89 80 99 99 118 105 84 84 78 78
9 5 3 8 19 19 28 173 293 293 334 193 71 71 34 36 36 118 368 979 979 1157 1083 1014 1106 1106 1264 1341 1380 1380 1317 1247 1123 1123 1085 952 952 762 685 517 517 282 115 16 nan nan nan nan nan nan nan 0 4 4 0 nan nan nan nan 389 389 629 770 772 589 589 624 594 491 491 379 304 304 304 281 265 265 310 428 552 552 643 598 438 317 317 288 290 250 250 209 162 90 90 78 98 98 103 91 70 70 63 81
3 1 0 3 18 18 21 74 195 195 345 188 55 55 20 21 21 51 213 676 676 1065 1120 1004 1046 1046 1246 1312 1308 1308 1245 1185 984 984 987 847 847 677 563 438 438 227 70 16 nan nan nan nan nan nan nan nan 1 1 2 nan nan nan nan 375 375 646 868 869 671 671 640 608 477 477 391 338 333 333 281 265 265 274 302 401 401 520 563 506 412 412 378 385 364 364 266 220 114 114 81 86 86 107 83 61 61 62 68
3 0 nan 0 7 7 15 31 126 126 287 153 37 37 9 16 16 38 126 398 398 858 1108 1038 990 990 1221 1244 1192 1192 1138 1023 847 847 821 752 752 588 481 364 364 203 76 nan nan nan nan nan nan nan nan nan 0 0 0 nan nan nan 66 389 389 664 890 964 724 724 690 591 492 492 432 430 395 395 311 265 265 259 239 285 285 409 506 484 455 455 486 527 503 503 375 277 144 144 90 92 92 98 92 84 84 67 69
0 nan 0 1 1 1 8 17 81 81 213 130 35 35 11 16 16 39 83 215 215 623 1010 1020 1014 1014 1153 1179 1082 1082 939 949 634 634 642 641 641 483 389 278 278 195 57 nan nan nan nan nan nan nan nan nan nan nan nan nan nan nan 161 431 431 682 870 929 780 780 705 573 504 504 503 598 438 438 347 293 293 276 265 270 270 348 427 466 441 441 468 603 680 680 582 314 157 157 102 88 88 108 118 110 110 64 47
0 nan nan 3 2 2 5 10 59 59 145 118 42 42 16 14 14 40 54 85 85 379 869 1044 1127 1127 1227 1029 976 976 432 624 492 492 510 514 514 408 325 229 229 46 18 14 nan nan nan nan nan nan nan nan nan nan nan nan nan nan 170 443 443 702 928 1008 847 847 682 546 578 578 611 688 481 481 364 303 303 272 259 278 278 354 417 452 415 415 446 546 641 641 583 292 138 138 101 101 101 122 146 105 105 59 38
1 0 6 4 3 3 5 7 49 49 114 103 44 44 23 17 17 41 50 42 42 199 597 991 1068 1068 1171 970 506 506 439 337 375 375 299 436 436 343 265 167 167 89 65 26 nan nan nan nan nan nan nan nan nan nan nan nan nan nan 221 453 453 758 996 1143 911 911 703 590 659 659 699 666 462 462 353 272 272 258 255 271 271 388 453 454 420 420 455 503 516 516 491 258 127 127 88 98 98 135 157 98 98 51 41
2 9 9 6 5 5 7 8 51 51 100 87 25 25 24 20 20 39 50 37 37 90 293 752 937 937 1032 870 550 550 426 400 344 344 238 270 270 178 103 146 146 147 107 20 nan nan nan nan nan nan nan nan nan nan nan nan nan 2 208 493 493 809 1114 1220 1075 1075 726 675 716 716 720 639 445 445 336 265 265 234 244 269 269 355 422 456 429 429 466 447 412 412 348 227 102 102 74 97 97 146 133 105 105 55 20
4 10 16 16 14 14 15 21 93 93 153 42 19 19 24 19 19 13 17 21 21 31 55 204 465 465 770 399 301 301 271 386 431 431 365 287 287 129 173 181 181 114 36 nan nan nan nan nan nan nan nan nan nan nan nan nan nan 38 222 481 481 867 1064 1209 1313 1313 942 804 686 686 512 364 264 264 219 201 201 184 220 300 300 409 498 536 575 575 547 436 338 338 274 213 105 105 83 100 100 100 90 65 65 27 5
5 7 12 17 14 14 20 30 138 138 120 34 5 5 7 3 3 3 3 6 6 19 43 138 178 178 477 336 187 187 118 290 344 344 324 322 322 208 191 167 167 105 14 nan nan nan nan nan nan nan nan nan nan nan nan nan nan 46 210 465 465 875 1081 1189 1150 1150 914 783 629 629 438 254 189 189 151 153 153 175 211 293 293 370 484 587 750 750 643 472 342 342 311 223 127 127 104 90 90 79 85 62 62 24 1
7 12 18 23 9 9 16 16 21 21 24 30 0 0 0 nan nan nan nan 0 0 10 28 60 84 84 413 458 173 173 43 222 207 207 225 333 333 226 177 136 136 80 2 1 0 0 1 nan nan nan nan nan nan nan nan 0 0 23 200 451 451 814 1097 1177 1036 1036 800 682 573 573 394 245 162 162 145 132 132 170 203 285 285 387 473 586 675 675 642 478 353 353 291 232 156 156 96 69 69 74 68 58 58 19 2
14 22 65 49 9 9 7 2 3 3 0 4 nan nan nan nan nan nan nan 0 0 8 26 38 55 55 207 537 270 270 80 182 136 136 76 181 181 265 160 118 118 55 1 0 2 2 1 nan nan nan nan nan nan nan nan 0 0 30 171 411 411 749 1026 1106 958 958 776 739 626 626 470 279 213 213 197 183 183 185 218 328 328 430 490 532 535 535 538 410 307 307 263 203 147 147 90 81 81 72 63 54 54 16 2
71 170 153 87 14 14 6 nan nan nan nan nan nan nan nan nan nan nan nan 0 0 16 36 52 60 60 145 544 379 379 150 142 95 95 36 95 95 227 150 88 88 16 nan nan 1 1 nan nan nan nan nan nan nan nan nan nan nan 47 165 372 372 651 878 973 881 881 844 880 795 795 581 369 320 320 300 306 306 262 256 372 372 540 571 481 393 393 422 310 209 209 162 145 125 125 88 70 70 62 55 43 43 19 3
188 318 243 167 43 43 10 2 nan nan 0 1 nan nan nan nan nan nan nan 2 2 26 42 82 96 96 163 453 343 343 171 95 65 65 33 50 50 175 124 44 44 nan nan nan nan nan nan nan nan nan nan nan nan nan nan nan nan 46 161 358 358 566 741 861 901 901 945 1072 1029 1029 782 537 390 390 391 395 395 347 296 369 369 567 627 501 283 283 331 297 179 179 106 69 65 65 60 56 56 39 41 25 25 21 5
287 355 294 235 72 72 20 7 nan nan nan 0 nan nan nan nan nan nan 0 12 12 31 51 84 107 107 151 342 287 287 133 81 46 46 27 50 50 114 80 9 9 nan nan nan nan nan nan nan nan nan nan nan nan nan nan nan nan 15 127 345 345 541 644 752 832 832 957 1093 1139 1139 885 652 490 490 432 466 466 440 339 306 306 465 525 428 237 237 259 262 202 202 91 33 46 46 47 38 38 29 27 23 23 24 10
245 311 224 200 131 131 37 3 nan nan 1 nan nan nan nan nan nan 0 0 19 19 44 64 108 104 104 84 305 221 221 100 47 38 38 52 52 52 61 34 nan nan nan nan nan nan nan nan nan nan nan nan nan nan nan nan nan nan nan 74 289 289 464 583 651 800 800 933 1028 1074 1074 987 784 537 537 477 513 513 483 375 237 237 300 366 323 192 192 179 195 189 189 101 34 34 34 35 32 32 27 24 24 24 22 11
84 226 130 103 193 193 66 8 nan nan nan nan 0 0 0 0 0 nan nan 18 18 61 94 143 95 95 140 272 186 186 74 14 24 24 52 41 41 22 3 nan nan nan nan nan nan nan nan nan nan nan nan nan nan nan nan nan nan nan 27 185 185 426 565 664 779 779 871 923 929 929 886 769 589 589 527 530 530 501 389 212 212 208 225 222 165 165 139 127 123 123 94 42 27 27 24 24 24 24 23 24 24 17 11
59 123 70 44 78 78 29 27 4 4 2 nan 0 0 1 nan nan nan nan 12 12 60 116 129 72 72 134 264 146 146 70 10 5 5 8 47 47 3 nan nan nan nan nan nan nan nan nan nan nan nan nan nan nan nan nan nan nan nan 3 81 81 297 523 652 731 731 818 863 827 827 754 641 542 542 516 548 548 549 461 266 266 169 151 170 154 154 113 111 104 104 80 47 28 28 20 21 21 22 21 20 20 13 10
81 56 56 18 1 1 nan 12 17 17 17 2 nan nan nan nan nan nan nan 4 4 51 92 89 18 18 84 230 129 129 72 26 4 4 4 14 14 nan nan nan nan nan nan nan nan nan nan nan nan nan nan nan nan nan nan nan nan nan nan 22 22 158 407 611 686 686 803 843 769 769 666 563 471 471 444 500 500 535 507 349 349 202 132 144 150 150 131 101 93 93 76 51 30 30 25 19 19 19 19 17 17 11 8
101 32 68 2 nan nan nan 3 9 9 17 19 4 4 nan nan nan nan nan nan nan 40 70 58 8 8 33 172 116 116 70 34 4 4 nan 1 1 nan nan nan nan nan nan nan nan nan nan nan nan nan nan nan nan nan nan nan nan nan nan 0 0 50 202 435 674 674 784 826 788 788 683 524 435 435 381 406 406 461 492 413 413 296 196 141 139 139 145 114 99 99 92 57 38 38 28 25 25 21 20 17 17 14 10
103 42 50 2 1 1 nan 1 0 0 9 29 13 13 nan nan nan nan nan nan nan 27 60 63 8 8 40 158 104 104 58 26 0 0 0 nan nan nan nan nan nan nan nan nan nan nan nan nan nan nan nan nan nan nan nan nan nan nan nan nan nan 6 68 226 481 481 601 777 781 781 642 542 426 426 325 299 299 367 420 399 399 357 290 226 183 183 155 127 112 112 101 83 50 50 32 27 27 24 22 21 21 17 13
79 22 27 2 nan nan nan nan nan nan 5 25 19 19 4 nan nan nan nan nan nan 17 53 67 18 18 50 153 93 93 57 16 nan nan nan nan nan nan nan nan nan nan nan nan nan nan nan nan nan nan nan nan nan nan nan nan nan nan nan nan nan nan 13 74 260 260 372 566 664 664 594 501 417 417 293 244 244 267 357 362 362 369 375 327 237 237 183 136 122 122 125 102 63 63 45 32 32 24 25 25 25 21 15
24 5 8 0 0 0 nan nan 2 2 5 22 17 17 7 nan nan nan nan nan nan 12 45 53 26 26 28 115 82 82 52 11 nan nan nan nan nan nan nan nan nan nan nan nan nan nan nan nan nan nan nan nan nan nan nan nan nan nan nan nan nan nan 0 12 104 104 138 283 435 435 493 436 357 357 263 185 185 183 263 308 308 334 389 364 272 272 212 163 120 120 123 127 81 81 57 38 38 24 26 28 28 23 17
nan nan 1 1 nan nan nan 2 2 2 nan 18 16 16 4 nan nan nan nan nan nan 12 40 48 24 24 17 69 103 103 59 12 nan nan nan nan nan nan nan nan nan nan nan nan nan nan nan nan nan nan nan nan nan nan nan nan nan nan nan nan nan nan nan nan 40 40 31 89 264 264 403 401 303 303 221 169 169 136 185 240 240 281 333 331 265 265 208 192 143 143 120 127 105 105 75 43 43 26 27 30 30 25 16
nan nan 0 nan nan nan nan 1 nan nan nan 3 39 39 11 nan nan 0 0 3 3 18 44 40 9 9 8 47 95 95 62 18 nan nan 0 nan nan nan nan nan nan nan nan nan nan nan nan nan nan nan nan nan nan nan nan nan nan nan nan nan nan nan nan nan 13 13 4 16 124 124 319 367 296 296 234 155 155 127 153 197 197 214 259 280 239 239 206 173 140 140 115 124 116 116 96 49 49 26 26 31 31 27 17
nan nan 1 nan nan nan nan nan nan nan nan 2 83 83 36 38 38 39 18 9 9 28 43 29 1 1 6 57 101 101 62 26 1 1 3 nan nan nan nan nan nan nan nan nan nan nan nan nan nan nan nan nan nan nan nan nan nan nan nan 1 1 8 nan nan 2 2 nan 0 39 39 186 291 289 289 231 185 185 171 180 177 177 191 209 231 215 215 185 167 138 138 125 120 114 114 95 56 56 24 20 34 34 29 21
143 44 8 nan nan nan nan nan nan nan nan 1 0 0 nan 0 0 16 89 42 42 38 32 16 0 0 43 83 75 75 47 24 5 5 7 nan nan nan nan nan nan nan nan nan nan nan nan nan nan nan nan nan nan nan nan nan nan nan nan 8 8 58 20 6 nan nan nan nan 5 5 73 215 263 263 263 249 249 249 211 191 191 188 187 204 223 223 208 177 164 164 139 119 123 123 105 64 64 27 22 37 37 62 30
83 25 29 4 nan nan nan nan nan nan nan nan 0 0 nan nan nan nan 4 17 17 44 18 8 3 3 76 78 66 66 41 23 19 19 15 nan nan nan nan nan nan nan nan nan nan nan nan nan nan nan nan nan nan nan nan nan nan nan 0 29 29 50 12 6 0 0 0 nan nan nan 39 130 242 242 317 342 342 343 339 315 315 293 273 271 292 292 253 239 210 210 168 132 135 135 126 82 82 37 44 77 77 111 80
4 63 27 6 2 2 nan nan nan nan nan nan nan nan nan nan nan nan 0 4 4 8 15 2 15 15 38 60 41 41 38 29 31 31 22 nan nan nan nan nan nan nan nan nan nan nan nan nan nan nan nan nan nan nan nan nan nan nan 5 46 46 33 6 6 6 6 22 15 nan nan 8 73 179 179 334 459 459 485 510 537 537 480 426 424 399 399 376 333 296 296 245 186 160 160 150 114 114 69 87 129 129 199 176
0 6 22 5 0 0 nan nan nan nan nan nan nan nan nan nan nan nan nan 1 1 nan nan 9 18 18 11 27 40 40 42 42 40 40 27 3 3 nan nan nan nan nan nan nan nan nan nan nan nan nan nan nan nan nan nan nan nan 1 16 44 44 20 16 5 0 0 34 69 30 30 nan 54 114 114 310 511 511 600 661 774 774 666 638 644 606 606 541 511 459 459 408 279 217 217 204 148 148 108 124 199 199 289 292
0 nan 3 1 nan nan nan nan nan nan nan nan nan nan nan nan nan nan nan 0 0 nan nan 15 11 11 4 8 37 37 54 60 39 39 22 14 14 nan nan nan nan nan nan nan nan nan nan nan nan nan nan nan nan nan nan nan nan 2 15 25 25 20 0 nan 1 1 44 41 52 52 nan 11 71 71 207 357 357 511 565 594 594 586 664 753 780 780 811 776 706 706 610 463 317 317 263 216 216 167 152 203 203 301 387
5 2 nan nan nan nan nan nan nan nan nan nan nan nan nan nan nan nan nan 0 0 2 1 3 nan nan nan 0 16 16 44 59 34 34 19 6 6 nan nan nan nan nan nan nan nan nan nan nan nan nan 0 nan nan nan nan nan nan nan 15 21 21 5 16 15 27 27 4 nan nan nan nan nan nan nan 16 40 40 58 59 96 96 142 314 569 689 689 753 882 913 913 893 842 756 756 605 520 520 415 279 259 259 261 327
4 4 nan nan nan nan nan nan nan nan nan nan nan nan nan nan nan nan nan nan nan nan 7 0 nan nan nan nan 24 24 47 53 20 20 12 13 13 2 nan nan nan nan nan nan nan nan nan nan nan nan 2 nan nan nan nan nan nan nan 15 20 20 17 12 5 10 10 3 nan nan nan nan nan nan nan nan 0 0 0 nan 2 2 28 131 317 510 510 559 592 668 668 752 889 818 818 768 733 733 673 499 321 321 325 326
3 3 4 0 nan nan nan nan nan nan nan nan nan nan nan 2 2 1 nan nan nan nan 1 nan nan nan nan nan 16 16 54 50 10 10 nan 13 13 15 nan nan nan nan nan nan nan nan nan nan nan nan 4 5 nan nan nan nan nan nan 2 5 5 15 10 2 4 4 3 nan nan nan nan nan nan nan nan nan nan nan nan nan nan nan 50 177 385 385 457 379 456 456 612 685 748 748 788 842 842 833 773 598 598 477 447
3 2 2 4 3 3 nan nan nan nan nan nan nan nan nan 3 3 5 0 nan nan 0 0 nan nan nan nan nan nan nan 28 42 0 0 nan nan nan 5 2 nan nan nan nan nan nan nan nan nan nan nan 5 6 3 3 2 3 3 3 3 0 0 11 4 nan 0 0 3 nan nan nan nan nan nan nan nan nan nan nan nan nan nan nan 2 74 193 193 433 272 312 312 455 533 592 592 653 704 704 796 871 778 778 683 645
2 3 2 1 3 3 2 0 nan nan nan 0 nan nan nan 1 1 1 nan nan nan 0 10 3 nan nan nan nan nan nan nan 25 1 1 nan nan nan nan nan nan nan nan nan nan nan nan 1 1 1 1 15 11 10 10 10 10 10 11 9 4 4 nan nan nan nan nan nan nan nan nan nan nan nan nan nan nan nan nan nan nan nan nan nan 0 63 63 244 162 205 205 337 407 433 433 489 573 573 632 736 800 800 771 733
2 3 2 1 1 1 5 5 5 5 nan nan nan nan nan nan nan nan nan nan nan nan 7 34 1 1 0 nan nan nan nan 0 0 0 nan nan nan nan nan nan nan 0 nan nan 1 1 9 6 6 6 24 20 18 18 15 17 17 16 16 9 9 nan nan nan nan nan nan nan nan nan nan nan nan nan nan nan nan nan nan nan nan nan nan nan nan nan 69 29 73 73 225 390 364 364 363 413 413 494 550 635 635 662 697
2 2 2 1 1 1 1 1 5 5 8 nan nan nan nan nan nan nan nan nan nan nan 0 27 48 48 8 nan nan nan nan nan nan nan nan nan nan nan nan nan nan nan nan nan nan nan 4 6 17 17 35 29 28 28 22 20 20 19 16 7 7 0 nan nan nan nan nan nan nan nan nan nan nan nan nan nan nan nan nan nan nan nan nan nan nan nan nan nan 3 3 95 327 322 322 318 336 336 380 427 508 508 565 565
1 1 1 1 1 1 0 0 1 1 4 4 0 0 2 nan nan nan nan 0 0 10 12 27 42 42 27 0 nan nan nan nan nan nan nan nan nan nan nan nan nan nan nan nan nan nan nan 4 18 18 26 23 35 35 31 26 26 22 16 6 6 0 nan nan nan nan nan nan nan nan nan nan nan nan nan nan nan nan nan nan nan nan nan nan nan nan nan nan nan nan 8 168 257 257 294 310 310 325 393 472 472 502 531
1 1 0 1 1 1 1 1 1 1 2 5 2 2 7 0 0 nan nan 6 6 31 41 36 31 31 24 5 nan nan nan nan nan nan nan nan nan nan nan nan nan nan nan nan nan nan nan 0 6 6 11 11 12 12 19 27 27 23 16 6 6 0 nan nan nan nan nan nan nan nan nan nan nan nan nan nan nan nan nan nan nan nan nan nan nan nan nan nan nan nan nan 47 124 124 246 306 306 372 392 443 443 500 529
1 0 0 1 2 2 2 1 1 1 3 2 4 4 5 1 1 0 nan 2 2 31 50 48 36 36 25 10 1 1 nan nan nan nan nan nan nan nan nan nan nan nan nan nan nan nan nan nan nan nan 2 3 1 1 6 5 5 9 16 6 6 0 nan nan nan nan nan nan nan nan nan nan nan nan nan nan nan nan nan nan nan nan nan nan nan nan nan nan nan nan nan 13 81 81 152 241 241 326 395 419 419 446 498
1 0 0 0 1 1 2 1 1 1 2 2 3 3 5 6 6 3 nan nan nan 12 45 35 32 32 39 25 11 11 3 nan nan nan nan nan nan nan nan nan nan nan nan nan nan nan nan nan nan nan nan nan nan nan nan 2 2 7 16 6 6 0 nan nan nan nan nan nan nan nan nan nan nan nan nan nan nan nan nan nan nan nan nan nan nan nan nan nan nan nan nan nan 28 28 80 154 154 286 350 371 371 393 465
1 0 0 0 1 1 1 1 1 1 1 2 3 3 3 3 3 5 6 1 1 nan 44 41 27 27 40 57 34 34 9 nan nan nan nan nan nan nan nan nan nan nan nan nan nan nan nan nan nan nan nan nan nan nan nan nan nan 7 8 7 7 1 nan nan nan nan nan nan nan nan nan nan nan nan nan nan nan nan nan nan nan nan nan nan nan nan nan nan nan nan nan nan nan nan nan 141 141 247 285 302 302 342 384
1 0 0 0 0 0 1 1 2 2 1 2 2 2 3 2 2 2 4 6 6 8 2 10 56 56 53 73 65 65 20 nan nan nan nan nan nan nan nan nan nan nan nan nan nan nan nan nan nan nan nan nan nan nan nan nan nan nan 0 7 7 1 nan nan nan nan nan nan nan nan nan nan nan nan nan nan nan nan nan nan nan nan nan nan nan nan nan nan nan nan nan nan nan nan nan 127 127 174 264 260 260 279 321
0 1 1 0 0 0 0 0 1 1 1 2 2 2 3 2 2 2 2 1 1 3 11 1 23 23 75 81 88 88 34 nan nan nan nan nan nan nan nan nan nan nan nan nan nan nan nan nan nan nan nan nan nan nan nan nan nan nan nan 3 3 3 nan nan nan nan nan nan nan nan nan nan nan nan nan nan nan nan nan nan nan nan nan nan nan nan nan nan nan nan nan nan nan nan nan 0 0 143 285 303 303 285 267
1 1 0 0 0 0 0 0 1 1 1 2 2 2 2 1 1 1 1 1 1 2 3 12 1 1 14 38 81 81 58 nan nan nan nan nan nan nan nan nan nan nan nan nan nan nan nan nan 6 6 0 nan nan nan nan nan nan nan nan nan nan 0 0 nan nan nan nan nan nan nan nan nan nan nan nan nan nan nan nan nan nan nan nan nan nan nan nan nan nan nan nan nan nan nan nan nan nan 162 328 391 391 334 294
2 2 1 0 0 0 0 0 1 1 1 2 1 1 1 0 0 1 1 2 2 3 2 5 9 9 6 6 21 21 29 10 nan nan nan nan nan nan 0 nan nan nan nan nan nan nan nan nan 5 5 2 nan nan nan nan nan nan nan nan nan nan nan nan nan nan nan nan nan nan nan nan nan nan nan nan nan nan nan nan nan nan nan nan nan nan nan nan nan nan nan nan nan nan nan nan nan nan 147 395 462 462 445 360
3 3 1 0 0 0 0 0 1 1 1 2 0 0 0 0 0 1 1 2 2 3 2 3 7 7 7 5 2 2 5 2 nan nan nan nan nan nan 5 8 8 2 nan 0 nan nan nan nan nan nan 2 nan nan nan nan nan nan nan nan nan nan nan nan nan nan nan nan nan nan nan nan nan nan nan nan nan nan nan nan nan nan nan nan nan nan nan nan nan nan nan nan nan nan nan nan nan nan 130 397 464 464 491 445
3 5 2 0 0 0 0 0 1 1 1 2 1 1 0 0 0 0 1 1 1 3 3 3 4 4 9 4 nan nan 1 0 nan nan nan nan nan nan 4 17 17 14 nan nan nan nan nan nan nan nan nan nan nan nan nan nan nan nan nan nan nan nan nan nan nan nan nan nan nan nan nan nan nan nan nan nan nan nan nan nan nan nan nan nan nan nan nan nan nan nan nan nan nan nan nan nan nan 92 350 460 460 485 486
3 5 3 1 0 0 0 0 1 1 1 3 1 1 1 0 0 0 0 1 1 1 1 2 3 3 5 9 3 3 1 2 nan nan nan 0 0 nan 0 24 24 13 2 nan nan nan nan nan nan nan nan nan nan nan nan nan nan nan nan nan nan nan nan nan nan nan nan nan nan nan nan nan nan nan nan nan nan nan nan nan nan nan nan nan nan nan nan nan nan nan nan nan nan nan nan nan nan 31 280 433 433 485 515